Location: McFarlands Corners
(41.4117°N, 81.3382°W)
Time: 05:34:26
(UTC+00:00)

A-11 Canister half - Pass Details

Date: 22 February 2026
Orbit: 1524 x 1683 km, 47.3° (Epoch: 14 March)

Event Time Altitude Azimuth Distance (km) Brightness Sun altitude
Rises 04:08:16 0° 295° (WNW) 4,677 12.0 -53.0°
Reaches altitude 10° 04:11:38 10° 287° (WNW) 3,696 11.3 -53.4°
Enters shadow 04:13:53 18° 278° (W) 3,118 10.8 -53.6°
